RH
83 92 100 100 100 100 92 89 89 89 91 88 87 79 84 81 75 78 77 79 70 81 92 89 86 87 87 84 81 80 83 80 81 82 81 82 83 81 83 83 82 81 81
79 72 86 98 98 96 93 76 90 83 87 85 84 84 83 82 78 74 76 74 76 75 89 90 88 90 85 83 83 79 82 78 80 83 84 84 83 82 82 83 83 81 79
87 79 86 94 100 100 84 73 83 77 76 78 77 79 76 84 81 72 62 68 76 77 89 95 91 89 86 90 83 81 80 80 83 84 85 84 83 82 82 83 81 80 80
94 85 84 86 99 98 81 80 84 89 85 94 86 84 84 83 82 74 68 69 75 77 86 97 92 90 90 88 88 81 81 84 84 85 84 83 82 81 80 80 79 80 80
85 94 92 93 97 93 100 100 99 92 94 92 91 90 83 86 83 79 71 71 75 76 83 90 92 91 92 89 86 83 83 85 86 86 83 82 81 79 78 78 77 78 76
79 81 81 92 90 94 99 100 98 99 100 96 93 97 97 97 95 86 74 70 72 75 88 88 96 93 90 87 84 82 82 85 84 83 82 81 80 78 78 77 76 76 72
76 80 79 88 95 95 91 93 98 100 100 100 100 100 100 100 100 100 91 80 76 78 89 89 97 94 90 84 85 83 84 84 81 80 80 78 78 76 77 77 77 76 76
74 78 78 77 86 93 93 99 98 100 100 98 99 99 99 98 100 100 100 100 98 94 95 95 96 95 90 85 84 85 86 84 82 80 78 77 78 77 79 78 78 73 76
77 78 77 80 81 91 85 84 98 100 100 99 98 96 99 98 99 100 100 100 100 100 98 98 99 97 88 83 84 85 86 86 83 81 78 76 76 77 78 79 78 76 79
81 80 78 79 84 82 91 84 84 93 99 99 100 100 98 94 98 98 99 100 100 100 100 100 100 100 94 90 85 87 86 85 82 79 76 74 76 76 80 80 83 83 83
88 83 78 78 83 85 81 88 92 83 90 96 100 100 100 100 98 96 99 100 100 100 100 100 100 100 100 93 92 90 87 84 80 76 72 74 74 78 82 86 86 84 82
96 98 89 82 78 79 83 78 82 94 94 96 99 100 93 94 99 96 97 99 99 99 99 100 99 100 100 100 96 92 87 77 81 72 73 73 76 81 88 87 84 82 85
87 93 99 92 80 78 84 85 85 78 87 100 99 99 94 91 85 91 93 99 98 100 100 100 99 100 100 99 100 97 88 92 79 75 76 74 80 85 76 70 79 84 84
92 91 94 100 99 97 89 82 88 84 80 99 100 100 99 99 95 92 91 94 99 100 100 100 99 99 99 100 99 99 100 96 81 83 82 78 84 71 59 56 60 78 85
96 96 92 97 99 100 99 96 93 84 85 97 100 100 100 89 91 97 98 87 83 99 98 99 98 98 100 100 100 99 99 97 90 85 84 71 62 55 53 56 55 66 86
86 95 99 99 99 99 97 99 99 87 82 96 100 100 100 98 99 99 94 89 87 91 95 95 99 100 100 100 100 100 100 99 93 89 79 69 59 57 54 57 56 81 88
87 96 100 99 99 100 99 100 99 96 89 99 100 100 100 95 100 100 99 100 98 90 93 99 96 98 100 100 100 100 100 99 93 89 84 73 65 58 54 78 87 88 89
86 97 100 100 99 100 99 100 100 100 100 100 100 100 100 100 100 98 100 100 100 98 94 96 98 100 99 100 100 100 100 98 86 87 84 71 62 56 53 95 94 87 88
88 95 99 100 100 100 100 99 100 100 100 100 100 100 99 100 100 99 100 100 99 97 96 88 99 98 99 100 100 100 94 89 84 72 74 65 55 47 80 89 81 80 80
88 93 98 100 100 100 100 100 100 100 99 100 100 100 99 98 99 99 100 99 100 100 100 95 98 99 98 100 96 92 83 75 72 69 69 54 48 46 60 74 69 62 51
93 94 100 100 100 100 98 99 100 99 99 100 100 100 100 96 94 95 98 100 99 100 100 100 100 100 100 100 98 90 86 82 78 66 59 56 50 44 39 43 47 46 55
87 99 100 100 100 100 98 100 100 98 100 100 100 99 100 100 100 100 99 98 97 99 99 99 100 99 100 98 96 92 96 92 89 73 68 54 50 44 50 49 46 50 85
97 100 100 100 100 99 100 99 100 99 100 99 100 99 100 100 100 100 100 100 100 100 100 97 96 96 99 97 93 98 95 91 80 64 57 49 50 51 44 41 42 72 83
96 100 100 100 100 100 100 99 100 100 100 100 100 100 100 100 100 100 99 100 100 100 99 99 93 92 91 91 89 88 93 92 67 61 56 53 54 46 41 42 59 79 48
99 100 100 100 100 98 98 100 100 100 100 100 100 100 100 100 100 100 100 99 100 100 100 98 95 92 92 92 91 92 74 57 73 70 64 57 60 50 47 52 64 53 48
100 100 100 100 100 98 98 100 100 100 100 100 100 100 100 100 100 100 98 98 100 100 98 98 94 83 74 67 57 50 47 47 68 79 75 56 60 57 59 50 54 54 48
Wind_Speed
10 10 12 19 26 21 12 8 8 12 14 16 19 21 22 20 20 20 19 21 16 18 20 19 17 17 17 18 15 14 13 12 11 10 9 9 9 7 7 7 7 7 6
8 13 8 8 10 16 13 3 7 12 15 18 19 21 23 22 23 22 21 22 21 18 22 22 21 19 17 15 15 14 14 12 11 10 9 9 8 8 7 6 5 5 5
7 9 7 9 14 20 17 24 24 16 21 26 25 26 26 25 24 24 24 22 24 19 23 23 23 21 19 18 16 15 15 14 12 11 9 8 7 6 5 4 4 4 3
7 8 8 6 14 19 18 17 25 27 30 26 26 28 26 26 27 26 25 25 25 23 25 25 24 23 22 19 17 16 15 14 13 12 10 8 7 6 4 3 2 2 2
8 9 9 9 13 22 21 23 26 26 25 28 22 23 24 28 29 27 27 27 27 25 27 26 25 25 23 20 19 17 16 16 14 13 10 9 8 6 4 3 2 1 1
10 12 11 11 12 19 25 24 25 26 23 24 21 23 23 26 27 29 29 30 29 29 30 28 28 28 26 22 20 19 18 17 15 14 12 10 8 6 5 4 3 3 4
12 11 12 12 14 17 21 23 21 23 17 16 13 11 18 18 27 26 29 30 29 30 32 30 30 29 28 25 22 20 19 17 15 14 12 10 8 7 6 5 4 5 5
13 13 13 14 14 18 17 21 26 19 18 17 8 4 3 4 8 22 22 26 27 32 32 31 33 33 33 27 25 22 21 18 15 13 11 9 8 6 5 5 5 6 7
17 15 14 14 14 16 22 20 19 20 17 18 20 7 3 3 3 5 20 21 26 28 29 31 34 35 36 30 27 25 21 18 15 12 10 9 7 6 5 5 6 7 8
19 17 16 14 13 14 18 21 20 20 18 14 21 19 8 3 3 0 3 16 21 27 30 29 32 35 38 33 29 28 23 20 15 13 11 9 7 6 6 6 5 8 9
20 18 18 16 14 13 15 18 22 21 20 21 19 10 14 9 7 2 2 4 15 19 23 25 27 31 35 37 31 31 27 21 14 13 12 10 8 7 6 5 6 7 9
23 23 22 21 19 17 15 18 19 22 22 23 24 25 17 7 6 5 2 2 4 11 20 20 24 28 33 36 36 35 27 26 16 13 11 9 8 7 6 6 6 7 8
25 23 24 26 24 22 20 18 21 21 20 23 25 25 28 25 17 15 5 3 2 5 8 16 18 24 28 31 33 34 29 24 16 12 10 9 8 11 12 10 7 8 8
25 27 24 27 25 22 22 23 23 23 24 23 25 24 26 26 26 23 14 9 2 2 4 5 21 21 24 29 33 30 25 23 20 16 10 10 12 13 12 11 12 10 8
25 27 26 26 27 25 27 25 25 27 26 24 25 28 29 28 25 26 27 24 11 4 5 12 8 19 22 26 28 24 22 21 19 15 13 14 14 13 12 13 14 10 8
29 28 27 28 28 27 28 26 27 28 29 26 25 27 29 27 26 23 22 20 19 11 3 10 14 15 24 26 26 24 22 20 16 16 14 14 14 13 12 14 12 8 9
30 27 27 28 28 28 28 25 27 28 29 27 26 26 28 25 26 25 22 23 24 18 5 5 13 13 21 25 23 21 19 17 16 14 13 13 13 13 11 11 9 9 10
31 26 28 28 28 29 26 26 26 24 25 26 27 27 25 26 23 22 22 25 25 22 12 9 13 15 14 21 24 20 18 16 15 13 11 11 12 12 10 9 9 10 10
31 26 28 28 28 30 28 28 27 25 25 29 27 28 24 24 22 21 22 21 21 19 21 14 11 17 10 19 19 18 17 16 13 13 12 11 11 8 8 8 8 8 8
30 26 30 29 28 30 27 24 20 22 23 25 27 24 24 24 24 23 23 21 20 20 21 18 11 15 13 17 21 23 18 15 12 11 12 11 10 9 8 8 8 10 10
28 27 30 29 29 28 26 24 24 25 24 28 26 22 24 23 21 23 22 20 18 21 22 18 13 10 12 17 22 21 17 14 11 11 11 11 10 10 10 11 10 10 10
27 27 29 28 28 28 26 21 18 17 23 23 26 21 22 19 18 18 20 21 21 22 19 16 14 13 15 18 21 23 19 10 5 10 9 10 9 8 8 9 10 10 4
26 29 29 27 26 27 25 19 17 19 21 21 26 20 18 17 17 17 14 12 12 14 15 21 21 20 19 25 26 23 19 14 7 7 7 6 8 8 8 9 11 4 5
26 29 28 26 25 25 20 17 13 15 17 17 20 22 22 20 19 21 21 19 16 13 12 14 16 17 15 21 21 20 20 14 10 6 4 3 4 6 8 9 7 5 8
26 29 25 25 22 23 18 14 14 16 17 16 18 19 21 22 22 24 24 24 20 16 13 15 17 15 16 16 16 17 20 20 4 4 1 2 1 7 7 5 11 7 11
27 27 24 21 19 19 15 14 16 18 19 20 17 18 20 23 24 24 25 30 30 24 30 28 26 24 22 18 15 11 16 16 8 4 2 1 2 6 4 3 8 11 11
Wind_Direction
359 324 268 233 213 194 186 206 223 221 207 205 206 207 207 205 206 210 208 204 208 197 177 169 167 158 156 157 162 160 160 156 154 149 145 138 134 127 116 108 101 97 84
3 358 324 267 206 163 170 151 241 222 215 213 212 218 219 216 216 215 215 216 210 207 187 171 166 163 162 163 163 163 162 161 159 155 152 147 144 140 132 118 105 105 87
344 355 334 274 215 187 183 169 185 217 223 215 216 222 218 219 220 217 219 218 213 210 192 178 169 167 168 166 166 167 166 166 165 161 157 153 150 146 139 126 104 98 91
327 328 332 268 229 201 195 224 213 211 216 232 225 230 233 223 220 224 221 214 213 204 197 183 176 172 173 175 170 171 173 172 171 168 163 159 157 155 154 146 103 88 33
323 305 295 286 231 207 218 218 219 218 224 231 237 243 237 233 223 224 219 214 210 206 197 190 185 179 175 176 175 175 178 178 176 173 170 167 165 169 173 183 197 225 334
335 317 303 273 266 245 234 232 228 232 235 230 238 244 234 230 225 223 219 214 209 208 194 192 188 186 180 180 180 179 182 182 181 179 177 176 177 179 187 200 235 255 289
324 319 314 293 267 260 247 238 238 227 233 229 232 233 226 231 218 219 218 212 209 206 196 195 192 187 190 186 184 182 185 184 188 186 185 188 192 192 198 212 229 261 278
326 318 314 297 286 266 258 247 235 234 251 251 219 170 225 242 211 203 208 210 205 199 198 202 196 192 194 190 191 186 188 187 192 196 194 193 203 213 227 241 250 267 283
330 320 313 305 290 273 260 258 241 229 217 231 213 197 196 194 156 215 187 196 203 202 204 209 205 200 201 200 194 190 190 192 194 200 205 208 212 227 239 258 271 283 287
328 323 321 311 296 289 269 257 253 231 225 221 223 223 226 153 161 125 231 200 198 205 211 215 210 204 204 203 197 196 195 196 198 201 212 218 223 236 249 261 278 292 296
324 322 321 318 309 292 283 273 260 245 238 232 224 228 198 186 175 126 169 195 230 208 208 218 212 212 207 206 201 200 197 199 202 205 212 216 233 247 254 263 281 289 297
323 319 318 312 310 298 285 279 278 256 239 231 230 227 220 189 194 176 137 172 207 215 216 215 216 219 218 213 203 203 200 203 204 210 214 221 226 234 236 264 289 286 288
324 317 312 308 302 298 286 280 269 265 262 235 230 232 232 225 221 206 185 143 141 186 201 224 226 226 225 218 198 201 202 204 197 204 217 226 222 226 247 264 276 286 289
319 316 307 304 301 291 285 276 275 264 260 253 234 222 232 231 225 220 205 165 125 132 195 203 218 224 225 213 199 205 201 201 195 197 213 215 221 249 264 276 277 280 284
316 318 309 300 298 291 288 273 265 260 259 248 241 236 230 234 239 239 232 220 182 172 203 213 195 217 215 210 210 212 209 209 203 202 210 226 246 259 269 271 275 280 288
323 319 309 305 299 297 287 273 262 257 254 245 240 233 225 230 226 222 218 212 214 205 179 198 197 205 209 207 210 210 210 208 202 209 224 241 252 260 265 268 273 279 285
320 313 307 303 299 290 288 264 262 256 250 235 233 231 224 227 222 217 225 230 222 202 160 191 202 207 205 212 204 209 207 209 209 215 228 241 256 262 262 257 266 282 288
317 307 309 301 301 293 291 260 256 247 241 230 226 222 223 224 221 220 220 218 223 221 190 161 187 193 199 211 211 207 203 205 211 221 232 243 255 258 257 247 265 282 286
315 304 312 300 300 296 292 276 247 246 237 232 218 211 219 217 211 213 214 213 216 215 209 186 164 185 182 192 185 190 193 198 204 216 229 241 252 256 244 253 267 277 279
315 305 311 299 298 297 288 272 253 238 233 229 226 227 220 215 215 212 213 207 208 209 205 186 169 164 171 177 183 174 176 187 197 212 223 237 244 247 250 249 256 274 285
309 301 307 299 298 298 285 279 247 242 240 226 226 224 226 219 219 212 208 212 206 204 189 176 158 159 163 167 178 179 180 186 199 212 221 236 246 255 258 260 267 277 287
304 302 302 296 295 294 287 282 242 245 226 233 227 218 217 207 208 210 221 218 212 202 188 172 174 165 170 172 178 176 175 161 191 215 221 240 250 249 248 262 273 281 284
298 304 300 294 291 290 289 277 254 234 224 218 218 208 190 188 197 196 193 192 203 211 223 205 188 176 170 186 182 180 182 178 171 175 201 240 237 244 264 268 279 235 272
298 304 298 294 292 290 286 273 258 221 201 196 201 201 191 179 180 174 165 158 159 167 192 201 202 192 195 187 190 192 186 171 155 152 184 216 236 266 277 278 194 209 310
300 303 294 295 289 290 283 262 233 205 191 192 189 189 185 170 174 180 161 143 129 120 130 142 142 144 147 159 170 169 162 159 134 163 137 213 284 312 301 257 203 230 325
299 300 296 296 288 282 276 216 217 195 178 173 172 168 178 172 169 174 161 148 124 124 128 125 120 123 133 141 153 172 172 165 127 138 188 184 21 358 329 272 233 260 301